Miscellaneous Local Product
Issued by NWS North Platte, NE

Home | Current Version | Previous Version | Text Only | Print | Product List | Glossary On
Versions: 1 2 3 4 5 6 7 8 9 10 11 12 13 14 15 16 17 18 19 20 21 22 23 24 25 26 27 28 29 30 31 32 33 34 35 36 37 38 39 40 41 42 43 44 45 46 47 48 49 50
000
AXUS43 KLBF 192110
MISLBF


WESTERN AND NORTH CENTRAL NEBRASKA HOURLY WEATHER ROUNDUP
NATIONAL WEATHER SERVICE NORTH PLATTE NE
400 PM CDT FRI SEP 19 2014

***STATIONS NOT REPORTING VARIABLES SUCH AS SKY/WEATHER OR
PRESSURE ARE PROVIDED BY THE NEBRASKA DEPARTMENT OF
ROADS...RAWS...AND APRS NETWORKS...AND ARE NOT UNDER
NATIONAL WEATHER SERVICE QUALITY CONTROL***

...OBSERVATIONS IN AND NEAR THE EASTERN PANHANDLE OF NEBRASKA...

CITY           SKY/WX    TMP DP  RH WIND       PRES   REMARKS
PINE RIDGE     MOSUNNY   85  55  35 W10       29.82F
CHADRON        SUNNY     86  50  28 W3        29.83F
ALLIANCE       SUNNY     87  49  26 NW7       29.86F
SIDNEY         SUNNY     90  45  21 E8        29.91F
WHITECLAY        N/A     85  52  31 W8          N/A
RUSHVILLE        N/A     91  38  15 W13         N/A
CRESCENT LAKE    N/A     89  49  25 NW7G14      N/A
LISCO            N/A     91  39  16 W10         N/A
BIG SPRINGS      N/A     92  47  21 CALM        N/A
$$

...OBSERVATIONS IN NORTH CENTRAL NEBRASKA...

CITY           SKY/WX    TMP DP  RH WIND       PRES   REMARKS
VALENTINE      SUNNY     88  55  32 NW8       29.79S
THEDFORD       SUNNY     91  59  34 NW10      29.80S
AINSWORTH      SUNNY     85  56  36 NE7       29.78F
O`NEILL        SUNNY     88  63  43 NW12      29.75R
ORD            SUNNY     88  64  44 SW21G29   29.76F
BROKEN BOW     SUNNY     92  62  36 S18G28    29.79F HX  92
SPRINGVIEW       N/A     90  59  35 MISG        N/A
ROSE             N/A     92  64  39 W7          N/A  HX  93
NEWPORT          N/A     88  59  37 NW9         N/A
COMSTOCK         N/A     95  66  38 SW14        N/A  HX  98
CHAMBERS         N/A     90  61  37 S8G17       N/A  HX  90
$$

...OBSERVATIONS IN SOUTHWEST NEBRASKA AND FAR NORTHEAST COLORADO...

CITY           SKY/WX    TMP DP  RH WIND       PRES   REMARKS
WRAY           FAIR      94  44  17 S10       29.86S HX  90
HOLYOKE        FAIR      95  52  23 SW6       29.86F HX  92
IMPERIAL       SUNNY     93  50  23 S17G24    29.83F HX  90
OGALLALA       SUNNY     93  47  20 W8        29.82F HX  90
NORTH PLATTE   SUNNY     92  54  27 S17G24    29.78F HX  90
MCCOOK         SUNNY     92  56  29 S21G31    29.81F HX  90
LEXINGTON      SUNNY     91  57  31 SW20G29   29.81S HX  90
PAXTON           N/A     90  58  33 S13         N/A
SUTHERLAND       N/A     96  48  19 SW9         N/A  HX  93
BRADY            N/A     91  58  32 CALM        N/A
GOTHENBURG       N/A     91  51  25 S12         N/A
CALLAWAY         N/A     88  67  49 S15         N/A  HX  91
$$

...SOME WEATHER OBSERVATIONS FROM AROUND THE REGION...

CITY           SKY/WX    TMP DP  RH WIND       PRES   REMARKS
DENVER         MOSUNNY   85  41  21 S6        29.98F
LARAMIE        PTSUNNY   75  41  29 N10       30.11F
CHEYENNE       MOSUNNY   85  40  20 NW24G30   30.01F
SCOTTSBLUFF    SUNNY     89  49  25 VRB5      29.88F
RAPID CITY     PTSUNNY   81  49  32 N14       29.83R
PIERRE         MOSUNNY   85  56  37 W12       29.69S
WINNER         FAIR      89  53  29 NW10      29.75R
SIOUX FALLS    MOSUNNY   88  65  46 SW12G18   29.69S HX  90
OMAHA          MOSUNNY   84  68  58 S20       29.81F
GRAND ISLAND   SUNNY     89  62  40 SW23G35   29.79F
KANSAS CITY    PTSUNNY   75  68  78 S13       29.96F
WICHITA        MOSUNNY   91  63  39 S20G25    29.92F HX  92
HAYS           SUNNY     90  61  37 S20G26    29.89S
LIBERAL        MOSUNNY   88  57  35 S20G26    29.95F
GOODLAND       MOSUNNY   88  56  33 S16G26    29.90F
$$



USA.gov is the U.S. government's official web portal to all federal, state and local government web resources and services.